FW6321 Weather Reports


time (UTC)temp
F
wind
direction
speed
knots
gust
knots
rain 1hr
in
rain 24hr
in
rain mn
in
humidity
%
barometer
mb
20260901234131 57 189 0.9 2.6 0.00 0.01 0.00 91 1020.6
20260901233831 57 189 0.0 2.6 0.00 0.01 0.00 91 1020.7
20260901233340 57 189 0.0 1.7 0.00 0.01 0.00 91 1020.7
20260901232131 57 189 0.9 2.6 0.00 0.01 0.00 91 1020.7
20260901231631 57 189 0.9 2.6 0.00 0.01 0.00 91 1020.8
20260901231131 57 189 0.0 1.7 0.00 0.01 0.00 91 1020.9
20260901230632 58 189 0.0 2.6 0.00 0.01 0.00 91 1021.0
20260901230132 58 189 0.9 2.6 0.00 0.01 0.00 90 1021.0
20260901225630 58 189 0.9 2.6 0.00 0.01 0.00 90 1021.0
20260901225132 58 189 0.9 2.6 0.00 0.01 0.00 90 1021.0
20260901224631 58 189 0.9 3.5 0.00 0.01 0.00 90 1021.1
20260901224131 58 189 0.9 3.5 0.00 0.01 0.00 90 1021.0
20260901223637 58 190 1.7 4.3 0.00 0.01 0.00 90 1020.9
20260901223132 58 190 1.7 4.3 0.00 0.02 0.00 90 1020.9
20260901223107 58 190 1.7 2.6 0.00 0.06 0.00 89 1021.0
20260901222133 58 193 0.9 2.6 0.00 0.14 0.00 89 1021.0
20260901221631 58 196 0.9 2.6 0.00 0.15 0.00 89 1021.0
20260901221133 58 190 0.9 2.6 0.00 0.15 0.00 89 1020.9
20260901221100 59 194 1.7 2.6 0.00 0.15 0.00 89 1021.0
20260901220835 58 194 1.7 2.6 0.00 0.15 0.00 89 1020.9
20260901215633 59 195 0.9 2.6 0.00 0.15 0.15 89 1020.9
20260901215132 59 194 1.7 2.6 0.00 0.15 0.15 89 1020.9
20260901214631 59 195 1.7 3.5 0.00 0.15 0.15 89 1020.9
20260901214133 59 219 1.7 3.5 0.00 0.15 0.15 89 1021.0
20260901214123 59 197 0.9 3.5 0.00 0.15 0.15 89 1021.0
20260901213132 59 197 0.9 1.7 0.00 0.15 0.15 89 1020.9
20260901212629 59 197 0.9 1.7 0.00 0.15 0.15 89 1020.8
20260901212131 59 202 0.9 1.7 0.00 0.15 0.15 89 1020.8
20260901211630 59 208 0.9 1.7 0.00 0.15 0.15 88 1021.1
20260901211130 59 213 0.0 1.7 0.00 0.15 0.15 88 1021.2
20260901210629 59 213 0.9 1.7 0.00 0.15 0.15 88 1021.3
20260901210130 59 213 0.9 3.5 0.00 0.15 0.15 88 1021.4
20260901205630 59 213 1.7 3.5 0.00 0.15 0.15 88 1021.4
20260901205127 59 232 1.7 2.6 0.00 0.15 0.15 87 1021.5
20260901204629 59 224 0.9 2.6 0.00 0.15 0.15 87 1021.5
20260901204128 59 202 0.9 1.7 0.00 0.15 0.15 87 1021.4
20260901203628 59 202 0.9 2.6 0.00 0.15 0.15 86 1021.4
20260901203128 59 202 0.9 2.6 0.00 0.15 0.15 86 1021.4
20260901202629 59 202 0.9 2.6 0.00 0.15 0.15 85 1021.4
20260901202326 59 202 0.9 2.6 0.00 0.15 0.15 85 1021.4
20260901201831 59 202 1.7 2.6 0.00 0.15 0.15 85 1021.3
20260901200625 59 202 1.7 2.6 0.00 0.15 0.15 84 1021.2
20260901200617 60 202 1.7 2.6 0.00 0.15 0.15 83 1021.4
20260901195625 60 202 1.7 2.6 0.00 0.15 0.15 83 1021.3
20260901195328 60 202 0.9 1.7 0.00 0.15 0.15 82 1021.3
20260901194837 60 202 0.9 2.6 0.00 0.15 0.15 81 1021.4
20260901193623 60 202 0.9 1.7 0.00 0.15 0.15 80 1021.1
20260901193120 61 202 0.9 1.7 0.00 0.15 0.15 79 1021.1
20260901192620 61 202 0.0 0.9 0.00 0.15 0.15 79 1021.0
20260901192605 62 202 0.0 2.6 0.00 0.15 0.15 78 1021.0
20260901191633 62 202 0.9 1.7 0.00 0.15 0.15 78 1021.0
20260901191618 62 202 0.9 2.6 0.00 0.15 0.15 78 1021.0
20260901190613 62 202 0.9 2.6 0.00 0.15 0.15 77 1021.1
20260901190543 63 202 0.9 2.6 0.00 0.15 0.15 76 1021.0
20260901185615 63 205 0.9 2.6 0.00 0.15 0.15 76 1021.0
20260901185112 63 202 1.7 2.6 0.00 0.15 0.15 76 1021.0
20260901184610 64 211 1.7 3.5 0.00 0.15 0.15 75 1021.0
20260901184109 64 210 1.7 3.5 0.00 0.15 0.15 75 1021.0
20260901183609 64 215 1.7 3.5 0.00 0.15 0.15 75 1021.0
20260901183111 65 239 0.9 3.5 0.00 0.15 0.15 74 1020.9
20260901182611 65 234 1.7 3.5 0.00 0.15 0.15 74 1020.8
20260901182110 65 229 1.7 6.1 0.00 0.15 0.15 73 1020.8
20260901181614 65 224 2.6 6.1 0.00 0.15 0.15 73 1020.8
20260901181111 65 191 2.6 7.8 0.00 0.15 0.15 73 1020.9
20260901180612 66 252 2.6 7.8 0.00 0.15 0.15 72 1020.9
20260901180113 66 265 2.6 6.1 0.00 0.15 0.15 72 1020.9
20260901175610 66 235 2.6 6.1 0.00 0.15 0.15 72 1020.8
20260901175112 66 294 2.6 6.1 0.00 0.15 0.15 71 1020.8
20260901174609 67 247 3.5 7.0 0.00 0.15 0.15 71 1020.8
20260901174552 67 229 3.5 7.0 0.00 0.15 0.15 70 1020.9
20260901173609 67 244 4.3 7.0 0.00 0.15 0.15 70 1020.8
20260901173112 67 227 3.5 9.6 0.00 0.15 0.15 70 1020.9
20260901172612 67 243 3.5 9.6 0.00 0.15 0.15 70 1021.0
20260901172108 68 270 3.5 7.8 0.00 0.15 0.15 70 1021.0
20260901171611 68 244 5.2 12.2 0.00 0.15 0.15 69 1021.0
20260901171110 68 245 5.2 12.2 0.00 0.15 0.15 69 1020.9
20260901170611 68 240 5.2 11.3 0.00 0.15 0.15 68 1021.0
20260901170109 68 270 7.0 12.2 0.00 0.15 0.15 68 1021.0
20260901165609 68 233 6.1 12.2 0.00 0.15 0.15 68 1021.0
20260901165111 68 232 5.2 11.3 0.00 0.15 0.15 68 1021.1
20260901164611 68 236 5.2 10.4 0.00 0.15 0.15 68 1021.0
20260901164109 68 233 4.3 8.7 0.00 0.15 0.15 68 1020.9
20260901163613 68 212 5.2 10.4 0.00 0.15 0.15 69 1020.9
20260901163109 68 231 5.2 11.3 0.00 0.15 0.15 68 1020.9
20260901162611 68 247 6.1 11.3 0.00 0.15 0.15 68 1020.8
20260901162602 68 220 6.1 11.3 0.00 0.15 0.15 67 1020.8
20260901161610 69 246 6.1 11.3 0.00 0.15 0.15 67 1020.9
20260901161112 69 242 7.0 12.2 0.00 0.16 0.15 67 1020.9
20260901160609 69 233 7.0 12.2 0.00 0.16 0.15 66 1020.9
20260901160110 69 242 7.0 13.9 0.00 0.16 0.15 66 1020.9
20260901155612 69 218 6.1 13.9 0.00 0.16 0.15 66 1020.8
20260901155110 69 229 5.2 12.2 0.00 0.16 0.15 66 1020.9
20260901154610 69 218 6.1 12.2 0.00 0.16 0.15 65 1020.9
20260901154107 69 248 5.2 12.2 0.00 0.16 0.15 66 1020.8
20260901153611 69 221 5.2 10.4 0.00 0.16 0.15 66 1020.8
20260901153108 69 233 5.2 10.4 0.00 0.16 0.15 65 1020.8
20260901152612 69 232 5.2 11.3 0.00 0.16 0.15 66 1020.8
20260901152605 69 235 5.2 11.3 0.00 0.16 0.15 65 1020.8
20260901151607 69 278 3.5 10.4 0.00 0.16 0.15 64 1020.8
20260901151556 70 279 4.3 9.6 0.00 0.16 0.15 64 1020.7
20260901150609 70 177 6.1 11.3 0.00 0.16 0.15 63 1020.8
20260901150108 71 214 6.1 11.3 0.00 0.16 0.15 63 1020.9
20260901145607 71 233 4.3 10.4 0.00 0.16 0.15 63 1020.8
20260901145557 71 243 4.3 10.4 0.00 0.16 0.15 64 1020.8
20260901145049 71 220 5.2 12.2 0.00 0.16 0.15 63 1020.8
20260901144105 70 222 4.3 12.2 0.00 0.16 0.15 65 1020.8
20260901143606 70 255 5.2 11.3 0.00 0.16 0.15 63 1020.8
20260901143559 70 175 7.0 14.8 0.00 0.16 0.15 63 1020.8
20260901142603 70 249 7.0 14.8 0.00 0.16 0.15 62 1020.8
20260901142557 70 229 6.1 11.3 0.00 0.16 0.15 63 1020.9
20260901141557 71 185 7.0 13.0 0.00 0.16 0.15 64 1020.9
20260901141101 70 236 7.8 13.0 0.00 0.16 0.15 63 1020.9
20260901140602 71 251 7.0 11.3 0.00 0.16 0.15 62 1020.9
20260901140057 71 255 6.1 11.3 0.00 0.16 0.15 61 1020.9
20260901135600 71 233 7.0 14.8 0.00 0.16 0.15 62 1020.9
20260901135548 72 231 6.1 14.8 0.00 0.16 0.15 61 1021.0
20260901134558 72 237 5.2 9.6 0.00 0.16 0.15 62 1020.9
20260901134056 71 233 6.1 12.2 0.00 0.16 0.15 63 1020.9
20260901133556 70 240 6.1 12.2 0.00 0.16 0.15 62 1020.9
20260901133050 71 282 6.1 14.8 0.00 0.16 0.15 65 1020.9
20260901132544 71 222 7.0 14.8 0.00 0.16 0.15 62 1021.0
20260901132043 71 269 6.1 13.9 0.00 0.16 0.15 65 1020.8
20260901131546 71 239 7.0 13.9 0.00 0.16 0.15 64 1020.9
20260901131045 70 199 7.0 13.0 0.00 0.16 0.15 63 1020.9
20260901130547 71 267 5.2 12.2 0.00 0.16 0.15 64 1020.9
20260901130045 70 264 6.1 13.9 0.00 0.16 0.15 64 1020.9
20260901125543 70 241 7.0 13.9 0.00 0.16 0.15 63 1020.9
20260901125043 71 221 7.8 13.9 0.00 0.16 0.15 65 1020.9
20260901124544 70 229 7.8 13.9 0.00 0.16 0.15 62 1020.8
20260901124044 71 243 7.0 13.9 0.00 0.16 0.15 63 1020.8
20260901123541 71 245 7.0 13.9 0.00 0.16 0.15 62 1020.8
20260901123044 71 235 5.2 12.2 0.00 0.16 0.15 63 1020.9
20260901122543 72 227 4.3 11.3 0.00 0.16 0.15 62 1020.8
20260901122042 71 270 6.1 11.3 0.00 0.16 0.15 63 1020.9
20260901121541 70 222 7.0 13.0 0.00 0.16 0.15 63 1020.9
20260901121041 69 216 8.7 16.5 0.00 0.16 0.15 64 1020.9
20260901120542 70 287 9.6 16.5 0.00 0.16 0.15 64 1021.0
20260901120535 69 162 9.6 15.6 0.00 0.16 0.15 65 1021.0
20260901115541 69 244 9.6 15.6 0.00 0.16 0.15 65 1021.0
20260901115037 69 250 7.8 15.6 0.00 0.16 0.15 65 1021.0
20260901114538 69 233 7.0 12.2 0.00 0.16 0.15 65 1020.9
20260901114523 69 276 7.8 14.8 0.00 0.16 0.15 64 1020.9
20260901114243 69 241 7.8 14.8 0.00 0.16 0.15 64 1020.9
20260901113037 69 179 7.0 14.8 0.00 0.16 0.15 65 1020.9
20260901112537 69 244 7.0 17.4 0.00 0.16 0.15 65 1020.9
20260901112050 70 277 7.8 17.4 0.00 0.16 0.15 65 1020.7
20260901111537 70 149 7.8 15.6 0.00 0.16 0.15 65 1020.7
20260901111038 69 252 8.7 15.6 0.00 0.16 0.15 66 1020.8
20260901110533 70 255 7.0 14.8 0.00 0.16 0.15 66 1020.9
20260901110035 70 251 7.0 14.8 0.00 0.16 0.15 67 1020.7
20260901105536 70 240 7.8 14.8 0.00 0.16 0.15 67 1020.7
20260901105033 69 234 7.0 14.8 0.00 0.16 0.15 66 1020.7
20260901104536 69 249 7.0 13.9 0.00 0.16 0.15 66 1020.8
20260901104034 69 251 6.1 12.2 0.00 0.16 0.15 68 1020.7
20260901103534 68 224 6.1 11.3 0.00 0.16 0.15 70 1020.7
20260901103035 68 270 6.1 11.3 0.00 0.16 0.15 69 1020.8
20260901102533 68 236 7.0 13.0 0.00 0.16 0.15 71 1020.8
20260901102522 67 221 6.1 13.0 0.00 0.16 0.15 69 1020.8
20260901101533 68 284 7.0 13.0 0.00 0.16 0.15 69 1020.8
20260901101031 68 301 6.1 13.0 0.00 0.16 0.15 70 1020.6
20260901100532 68 266 5.2 12.2 0.00 0.16 0.15 70 1020.8
20260901100521 68 250 7.0 13.0 0.00 0.16 0.15 74 1020.7
20260901095531 68 217 7.0 13.0 0.00 0.16 0.15 72 1020.6
20260901095033 67 258 7.0 13.0 0.00 0.16 0.15 74 1020.7
20260901094530 67 231 7.8 13.0 0.00 0.16 0.15 73 1020.7
20260901094519 68 237 7.0 12.2 0.00 0.16 0.15 73 1020.7
20260901093532 68 233 6.1 12.2 0.00 0.16 0.15 75 1020.7
20260901093032 68 239 5.2 13.0 0.00 0.16 0.15 76 1020.5
20260901092532 67 264 7.0 13.9 0.00 0.16 0.15 76 1020.6
20260901092515 67 182 7.0 13.9 0.00 0.16 0.15 76 1020.6
20260901091531 67 245 6.1 12.2 0.00 0.16 0.15 77 1020.5
20260901091516 66 237 6.1 11.3 0.00 0.16 0.15 79 1020.4
20260901090533 66 266 7.0 11.3 0.00 0.16 0.15 78 1020.4
20260901090521 66 260 7.0 11.3 0.00 0.16 0.15 80 1020.5
20260901085532 66 254 7.0 13.9 0.00 0.16 0.15 81 1020.4
20260901085030 65 248 7.0 13.9 0.00 0.16 0.15 81 1020.4
20260901084532 65 226 6.1 13.9 0.00 0.16 0.15 81 1020.4
20260901084032 65 233 5.2 11.3 0.00 0.16 0.15 83 1020.3
20260901083533 65 243 5.2 11.3 0.00 0.16 0.15 85 1020.3
20260901083031 65 204 6.1 11.3 0.00 0.16 0.15 86 1020.1
20260901082532 65 245 5.2 11.3 0.00 0.16 0.15 88 1020.2
20260901082514 64 206 5.2 10.4 0.00 0.16 0.15 90 1020.0
20260901082009 64 279 4.3 10.4 0.00 0.16 0.15 94 1019.8
20260901081032 64 226 2.6 7.8 0.00 0.16 0.15 95 1019.9
20260901080531 63 246 3.5 7.8 0.00 0.16 0.15 96 1019.8
20260901080509 63 239 3.5 7.8 0.00 0.16 0.15 96 1019.8
20260901080016 62 249 3.5 8.7 0.00 0.16 0.15 97 1019.7
20260901075031 62 249 5.2 8.7 0.00 0.16 0.15 97 1019.6
20260901074534 62 272 5.2 8.7 0.00 0.16 0.15 97 1019.6
20260901074030 62 243 4.3 8.7 0.00 0.16 0.15 98 1019.4
20260901073533 62 243 4.3 7.8 0.00 0.16 0.15 98 1019.4
20260901073031 63 255 3.5 7.8 0.00 0.16 0.15 98 1019.4
20260901072534 63 226 2.6 6.1 0.00 0.16 0.15 98 1019.3
20260901072031 63 229 2.6 6.1 0.00 0.16 0.15 98 1019.3
20260901071529 63 239 1.7 6.1 0.00 0.16 0.15 99 1019.3
20260901071220 63 227 2.6 6.1 0.00 0.16 0.15 98 1019.2
20260901070935 63 204 2.6 5.2 0.00 0.16 0.15 98 1019.2
20260901070722 63 229 1.7 4.3 0.00 0.16 0.15 98 1019.3
20260901065025 63 200 1.7 4.3 0.00 0.16 0.15 98 1019.2
20260901064525 62 224 0.9 2.6 0.00 0.16 0.15 98 1019.1
20260901064026 62 218 0.9 2.6 0.00 0.16 0.15 98 1019.0
20260901063954 62 228 1.7 2.6 0.00 0.17 0.15 98 1019.0
20260901063726 62 226 0.9 2.6 0.00 0.16 0.15 98 1019.0
20260901062527 62 225 0.9 2.6 0.00 0.17 0.15 98 1018.9
20260901062022 62 200 0.9 2.6 0.00 0.17 0.15 98 1018.9
20260901061524 62 218 0.9 2.6 0.00 0.17 0.15 98 1018.8
20260901061024 62 229 1.7 3.5 0.00 0.17 0.15 98 1018.9
20260901060524 62 220 0.9 3.5 0.00 0.17 0.15 98 1018.8
20260901060022 62 186 1.7 3.5 0.00 0.17 0.15 98 1018.8
20260901055943 62 169 1.7 4.3 0.00 0.21 0.15 98 1018.8
20260901055928 62 169 0.9 2.6 0.00 0.20 0.15 98 1018.7
20260901055717 62 199 0.9 3.5 0.00 0.18 0.15 98 1018.8
20260901054514 62 195 2.6 4.3 0.00 0.21 0.15 98 1018.7
20260901054006 62 184 2.6 5.2 0.00 0.21 0.15 98 1018.7
20260901053005 62 164 2.6 5.2 0.00 0.21 0.15 98 1018.7
20260901052511 62 177 1.7 3.5 0.00 0.21 0.15 98 1018.7
20260901052005 62 170 1.7 3.5 0.00 0.21 0.15 98 1018.6
20260901051504 62 169 1.7 3.5 0.00 0.21 0.15 98 1018.5
20260901051006 62 169 1.7 3.5 0.00 0.21 0.15 98 1018.5
20260901050504 62 200 2.6 4.3 0.00 0.21 0.15 98 1018.4
20260901050003 62 199 1.7 4.3 0.00 0.21 0.15 98 1018.5
20260901045506 62 183 1.7 4.3 0.00 0.21 0.15 98 1018.4
20260901045004 62 197 1.7 5.2 0.00 0.21 0.15 98 1018.4
20260901044506 62 194 1.7 5.2 0.00 0.21 0.15 98 1018.4
20260901044003 62 216 1.7 3.5 0.00 0.21 0.15 98 1018.5
20260901043504 62 215 1.7 3.5 0.00 0.21 0.15 98 1018.4
20260901043437 62 220 1.7 5.2 0.00 0.21 0.15 98 1018.3
20260901042503 62 178 2.6 5.2 0.00 0.21 0.15 98 1018.3
20260901042002 62 186 1.7 5.2 0.00 0.21 0.15 98 1018.1
20260901041949 62 191 1.7 4.3 0.00 0.21 0.15 98 1018.1
20260901041003 62 186 2.6 4.3 0.00 0.21 0.15 98 1018.1
20260901040505 62 187 2.6 6.1 0.00 0.21 0.15 98 1018.0
20260901040007 62 182 1.7 6.1 0.00 0.21 0.15 98 1018.0
20260901035945 62 185 1.7 3.5 0.01 0.21 0.15 98 1017.9
20260901035004 62 228 1.7 3.5 0.01 0.21 0.15 98 1018.1
20260901034503 62 214 1.7 5.2 0.01 0.21 0.15 98 1018.1
20260901034431 62 195 1.7 3.5 0.01 0.21 0.15 98 1018.0
20260901034422 62 216 1.7 3.5 0.01 0.21 0.15 98 1018.0
20260901034204 62 219 2.6 5.2 0.01 0.21 0.15 98 1017.9
20260901032506 62 225 1.7 4.3 0.01 0.21 0.15 98 1018.0
20260901032004 62 222 1.7 5.2 0.01 0.21 0.15 97 1018.0
20260901031504 62 191 1.7 5.2 0.01 0.21 0.15 97 1017.9
20260901031004 62 195 1.7 3.5 0.01 0.21 0.15 97 1017.9
20260901030505 62 202 1.7 4.3 0.01 0.21 0.15 97 1017.9
20260901030004 62 199 2.6 5.2 0.01 0.21 0.15 97 1017.9
20260901025504 62 182 2.6 5.2 0.00 0.20 0.14 97 1017.8
20260901024957 62 198 2.6 4.3 0.00 0.20 0.14 97 1017.7
20260901024458 62 188 1.7 4.3 0.00 0.20 0.14 97 1017.8
20260901023955 62 199 1.7 4.3 0.00 0.20 0.14 97 1017.8
20260901023458 62 201 2.6 4.3 0.00 0.20 0.14 97 1017.7
20260901022954 62 210 1.7 4.3 0.00 0.20 0.14 97 1017.6
20260901022456 62 186 1.7 4.3 0.00 0.20 0.14 97 1017.6
20260901021959 62 218 1.7 3.5 0.00 0.20 0.14 97 1017.6
20260901021457 61 214 1.7 4.3 0.00 0.20 0.14 97 1017.7
20260901020958 61 230 1.7 4.3 0.00 0.20 0.14 97 1017.7
20260901020929 61 199 1.7 4.3 0.00 0.20 0.14 97 1017.6
20260901015956 61 193 1.7 4.3 0.00 0.20 0.14 97 1017.6
20260901015932 61 177 1.7 4.3 0.00 0.20 0.14 97 1017.6
20260901015436 60 175 1.7 3.5 0.00 0.20 0.14 97 1017.5
20260901014931 60 185 1.7 3.5 0.00 0.20 0.14 97 1017.6
20260901013954 60 187 0.9 3.5 0.00 0.20 0.14 96 1017.6
20260901013454 60 205 0.9 2.6 0.00 0.20 0.14 96 1017.5
20260901012950 60 206 0.9 2.6 0.00 0.20 0.14 96 1017.5
20260901012452 60 181 0.0 1.7 0.00 0.20 0.14 96 1017.5
20260901011949 60 168 0.0 1.7 0.00 0.20 0.14 96 1017.4
20260901011914 60 168 1.7 4.3 0.00 0.20 0.14 96 1017.5
20260901011652 60 168 0.9 4.3 0.00 0.20 0.14 96 1017.4
20260901010447 60 177 1.7 3.5 0.00 0.20 0.14 96 1017.5
20260901005948 60 183 1.7 4.3 0.00 0.20 0.14 96 1017.6
20260901005448 60 187 2.6 5.2 0.00 0.20 0.14 96 1017.6
20260901004949 60 199 2.6 5.2 0.00 0.20 0.14 95 1017.5
20260901004448 60 181 1.7 4.3 0.00 0.20 0.14 95 1017.5
20260901003944 60 185 1.7 3.5 0.00 0.20 0.14 95 1017.5
20260901003444 60 186 1.7 4.3 0.00 0.20 0.14 95 1017.4
20260901002944 60 188 2.6 4.3 0.00 0.20 0.14 95 1017.5
20260901002925 60 172 2.6 3.5 0.00 0.20 0.14 95 1017.5
20260901001946 60 183 1.7 3.5 0.00 0.20 0.14 95 1017.5
20260901001444 60 183 1.7 3.5 0.00 0.20 0.14 95 1017.5
20260901000945 60 188 1.7 3.5 0.00 0.20 0.14 95 1017.4
20260901000450 60 199 1.7 4.3 0.00 0.20 0.14 94 1017.4
20260831235946 60 201 1.7 4.3 0.00 0.20 0.14 95 1017.4
20260831235444 61 183 2.6 4.3 0.00 0.20 0.14 94 1017.3
20260831234945 61 183 2.6 5.2 0.00 0.20 0.14 94 1017.4
20260831234443 61 187 2.6 6.1 0.00 0.20 0.14 94 1017.3